Location: Banff
(51.1667°N, 115.5667°W)
Time: 10:40:50
(UTC+00:00)

A-11 Canister half - Pass Details

Date: 04 December 2020
Orbit: 1524 x 1684 km, 47.3° (Epoch: 20 January)

Event Time Altitude Azimuth Distance (km) Brightness Sun altitude
Exits shadow 11:00:41 24° 163° (SSE) 2,977 10.4 -40.8°
Maximum altitude 11:03:54 28° 136° (SE) 2,756 10.4 -40.3°
Drops below altitude 10° 11:11:58 10° 82° (E) 3,927 11.8 -39.1°
Sets 11:15:39 0° 72° (ENE) 4,901 12.6 -38.5°
